Total_Precipitation_Accumulation
1.47 1.66 2.14 2.75 3.17 3.68 4.12 4.12 3.91 3.93 3.96 4.00 3.81 3.98 4.18 4.47 4.73 4.62 4.51 4.42 4.33 4.26 4.27 4.28 4.27 4.11 4.01 3.87 3.69 3.57 3.44 3.19 3.00 2.93 2.60 2.21 1.93 1.84 1.80 1.84 1.92 1.92 1.93
1.59 1.85 2.29 2.60 3.00 3.35 3.56 3.87 4.03 4.07 3.84 4.15 4.44 4.70 5.02 5.07 5.36 5.61 5.66 5.49 5.22 4.97 4.75 4.72 4.49 4.19 4.02 3.87 3.66 3.50 3.32 3.03 2.90 2.85 2.83 2.38 2.01 1.66 1.47 1.56 1.57 1.63 1.80
1.82 2.15 2.45 2.59 2.80 3.18 3.48 3.79 4.11 4.24 4.15 4.60 5.12 5.53 5.89 5.83 5.85 5.87 5.87 5.81 5.41 5.01 4.76 4.51 4.36 4.17 4.00 3.82 3.69 3.55 3.40 3.13 2.92 2.81 2.99 2.80 2.41 1.95 1.70 1.56 1.55 1.64 1.73
1.71 2.00 2.30 2.70 2.71 2.97 3.28 3.54 3.94 4.36 4.65 5.03 5.52 6.06 6.39 6.60 6.43 6.07 5.79 5.42 5.01 4.63 4.23 4.03 4.05 3.91 3.71 3.49 3.22 3.09 3.04 2.95 2.81 2.73 2.63 2.62 2.54 2.35 2.05 1.81 1.80 1.85 1.82
1.67 1.86 2.00 2.31 2.52 2.75 3.05 3.35 3.69 4.10 4.72 5.48 6.08 6.49 6.84 6.84 6.30 5.76 5.18 4.71 4.37 4.07 3.78 3.60 3.66 3.53 3.30 3.08 2.82 2.61 2.50 2.46 2.50 2.53 2.49 2.43 2.38 2.22 2.10 1.93 1.84 1.82 1.79
1.75 1.89 2.00 2.25 2.41 2.53 2.80 3.16 3.59 3.95 4.47 5.21 5.86 6.15 6.34 6.28 5.83 5.18 4.63 4.21 3.79 3.44 3.12 2.85 2.76 2.68 2.51 2.40 2.35 2.26 2.23 2.21 2.26 2.28 2.21 2.19 2.20 2.15 2.15 2.05 1.86 1.83 1.89
1.94 1.88 1.88 2.00 2.23 2.36 2.57 2.88 3.24 3.70 4.05 4.45 5.01 5.09 5.14 4.93 4.54 4.30 4.00 3.53 3.11 2.76 2.43 2.22 2.11 2.07 2.04 2.01 2.01 2.00 1.99 1.94 1.98 1.98 1.96 1.95 1.91 1.93 2.08 2.20 2.11 1.98 1.85
1.75 1.76 1.70 1.89 2.12 2.33 2.51 2.68 2.95 3.33 3.67 3.79 3.88 3.81 3.71 3.63 3.49 3.28 2.91 2.60 2.36 2.19 2.05 1.90 1.78 1.74 1.78 1.79 1.86 1.81 1.73 1.67 1.67 1.63 1.67 1.71 1.66 1.76 1.96 2.11 2.29 2.27 2.00
1.53 1.60 1.62 1.72 1.91 2.22 2.38 2.51 2.64 2.80 2.83 2.80 2.78 2.76 2.75 2.64 2.60 2.48 2.20 2.00 1.86 1.73 1.67 1.64 1.62 1.54 1.49 1.45 1.44 1.42 1.41 1.46 1.47 1.44 1.43 1.44 1.44 1.55 1.70 1.85 2.11 2.33 2.22
1.55 1.57 1.64 1.73 1.69 1.78 1.92 2.05 2.18 2.33 2.31 2.17 2.06 2.11 2.11 1.99 1.88 1.74 1.62 1.51 1.43 1.36 1.36 1.31 1.30 1.33 1.34 1.25 1.18 1.16 1.18 1.22 1.29 1.34 1.30 1.29 1.28 1.34 1.39 1.50 1.68 1.96 2.13
1.61 1.52 1.58 1.60 1.50 1.44 1.42 1.51 1.62 1.80 1.88 1.82 1.77 1.79 1.75 1.68 1.57 1.47 1.38 1.31 1.24 1.19 1.15 1.15 1.12 1.09 1.06 1.04 1.08 1.07 1.08 1.16 1.19 1.20 1.22 1.24 1.28 1.33 1.29 1.33 1.45 1.63 1.84
1.59 1.48 1.46 1.50 1.45 1.37 1.27 1.31 1.38 1.35 1.40 1.43 1.55 1.66 1.58 1.51 1.45 1.41 1.37 1.30 1.16 1.11 1.10 1.10 1.03 0.91 0.87 0.94 1.02 1.03 1.01 1.11 1.12 1.12 1.20 1.21 1.24 1.29 1.29 1.34 1.40 1.53 1.73
1.77 1.58 1.42 1.40 1.41 1.32 1.26 1.25 1.27 1.19 1.16 1.17 1.21 1.34 1.39 1.37 1.36 1.21 1.15 1.14 1.09 1.07 1.03 0.97 0.93 0.89 0.83 0.85 0.85 0.87 0.88 0.95 1.03 1.07 1.14 1.18 1.23 1.23 1.25 1.31 1.36 1.49 1.61
1.75 1.53 1.43 1.37 1.29 1.23 1.20 1.17 1.11 1.01 1.00 1.04 1.14 1.17 1.21 1.25 1.27 1.17 1.06 1.02 0.99 0.95 0.91 0.83 0.81 0.84 0.82 0.74 0.70 0.72 0.77 0.85 0.89 0.91 1.02 1.09 1.13 1.14 1.22 1.27 1.34 1.43 1.60
1.71 1.64 1.49 1.36 1.19 1.08 1.06 1.03 0.99 0.94 0.92 0.98 1.10 1.18 1.12 1.09 1.15 1.20 1.09 0.95 0.90 0.84 0.83 0.77 0.71 0.75 0.74 0.67 0.68 0.69 0.70 0.76 0.77 0.80 0.88 0.95 0.97 0.97 1.05 1.07 1.19 1.36 1.54
1.91 1.86 1.69 1.50 1.29 1.14 1.06 1.04 1.01 0.89 0.84 0.90 1.05 1.11 1.11 1.08 1.10 1.15 1.09 1.01 0.95 0.91 0.86 0.80 0.74 0.73 0.67 0.67 0.63 0.61 0.64 0.72 0.79 0.86 0.87 0.82 0.83 0.81 0.78 0.86 0.96 1.14 1.37
1.97 1.88 1.77 1.59 1.39 1.30 1.17 1.15 1.08 0.94 0.93 0.95 0.97 1.05 1.09 1.13 1.14 1.12 1.08 1.05 1.04 1.03 0.92 0.82 0.79 0.75 0.67 0.59 0.50 0.50 0.57 0.74 0.86 0.92 0.89 0.76 0.72 0.83 0.85 0.87 0.89 1.01 1.14
2.12 2.05 1.82 1.65 1.42 1.25 1.17 1.11 1.04 0.97 1.03 1.00 0.95 0.95 0.96 0.97 0.97 1.03 1.08 1.07 1.04 0.97 0.91 0.84 0.79 0.73 0.55 0.49 0.46 0.50 0.56 0.68 0.72 0.75 0.81 0.89 0.90 0.84 0.88 0.88 0.99 1.08 1.18
1.99 1.94 1.76 1.63 1.48 1.30 1.21 1.12 1.06 1.04 1.00 0.94 0.89 0.84 0.79 0.82 0.83 0.90 1.02 1.09 1.06 0.95 0.85 0.78 0.75 0.71 0.58 0.53 0.51 0.54 0.60 0.65 0.61 0.58 0.63 0.70 0.75 0.75 0.82 0.94 1.11 1.17 1.28
1.49 1.46 1.40 1.36 1.31 1.19 1.13 1.11 1.10 1.04 0.96 0.86 0.78 0.72 0.73 0.75 0.76 0.83 0.94 1.00 1.03 0.91 0.75 0.67 0.67 0.65 0.62 0.57 0.49 0.48 0.51 0.60 0.58 0.61 0.68 0.66 0.60 0.66 0.77 0.97 1.20 1.34 1.38
1.25 1.17 1.15 1.19 1.16 1.08 1.09 1.10 1.04 0.97 0.83 0.73 0.70 0.69 0.73 0.76 0.75 0.85 0.93 0.89 0.83 0.82 0.74 0.67 0.66 0.60 0.51 0.45 0.38 0.39 0.44 0.52 0.59 0.65 0.73 0.73 0.63 0.58 0.66 0.87 1.09 1.26 1.30
1.33 1.20 1.14 1.10 1.02 1.00 1.08 1.09 1.00 0.82 0.69 0.67 0.68 0.72 0.72 0.68 0.68 0.83 0.89 0.81 0.78 0.77 0.75 0.72 0.66 0.56 0.45 0.38 0.32 0.29 0.30 0.36 0.55 0.71 0.72 0.71 0.67 0.63 0.71 0.86 1.04 1.16 1.35
1.28 1.22 1.12 1.02 0.92 0.88 0.93 0.95 0.81 0.62 0.57 0.62 0.70 0.71 0.67 0.75 0.76 0.74 0.75 0.75 0.76 0.67 0.60 0.61 0.58 0.52 0.47 0.39 0.29 0.25 0.26 0.32 0.47 0.64 0.69 0.65 0.62 0.72 0.93 1.05 1.15 1.31 1.53
1.05 0.97 0.91 0.86 0.78 0.70 0.68 0.65 0.54 0.52 0.57 0.66 0.69 0.66 0.68 0.79 0.80 0.71 0.61 0.58 0.58 0.54 0.51 0.52 0.50 0.51 0.50 0.40 0.33 0.33 0.34 0.38 0.46 0.59 0.73 0.77 0.78 0.94 1.15 1.29 1.39 1.49 1.58
0.86 0.78 0.75 0.71 0.60 0.56 0.51 0.44 0.41 0.46 0.57 0.60 0.64 0.64 0.65 0.71 0.76 0.67 0.52 0.47 0.42 0.36 0.36 0.38 0.39 0.45 0.44 0.33 0.31 0.33 0.37 0.42 0.47 0.57 0.74 0.89 0.93 1.05 1.21 1.34 1.41 1.46 1.47
0.74 0.72 0.65 0.61 0.53 0.50 0.47 0.43 0.39 0.42 0.54 0.58 0.55 0.51 0.54 0.57 0.60 0.59 0.50 0.34 0.21 0.16 0.15 0.16 0.21 0.25 0.26 0.24 0.23 0.26 0.32 0.38 0.48 0.64 0.90 0.98 0.96 1.02 1.12 1.23 1.33 1.32 1.29